DMSP 5D-2 F13 DEB, 40416

Orbit data source: Space-Track

DMSP 5D-2 F13 DEB, 40416 is space debris in SSO originally from a launch on Fri, 24 Mar 1995 UTC launched from the Air Force Western Test Range (AFWTR). Debris objects in space refer to the collection of defunct objects orbiting the Earth. Examples of debris include non-operational satellites, rocket bodies, and fragments generated from explosions, collisions, or faulty payload assembly.

Loading next visibility...
Identifier
40416, 1995-015AD
Orbit
SSO
Last TLE update
21 hours ago
Origin
Manufacturer
Unknown
Mission
Spacecraft
Bus & Motor
Unknown
Mass
Unknown
Launch date (UTC)
1995-03-24 (30 years ago)
Launch vehicle
Unknown
Launch site
Air Force Western Test Range (AFWTR)
Object type
Payload
Rocket body
Debris
Shape & HBR
Unknown
Radar Cross Section
Small (<0.1 m²)

Expand to show TLE details & history

TLE from 21 hours ago
0 DMSP 5D-2 F13 DEB
1 40416U 95015AD  25187.02878647  .00001626  00000-0  69389-3 0  9993
2 40416  98.7637 207.8022 0005769  40.1637 319.9968 14.26458073536375
Epoch: 2025-07-06T00:41Z
TLE epoch observation values (Epoch: 2025-07-06T00:41:27.151Z)
Latitude
-0.00003°
Longitude
-86.81928°
Altitude
803.343 km
Speed
7.453 km/s
True Right ascension
13h 51m 12s
True Declination
0° 00' 00"
Sunlit
Object was in daylight at epoch
Visualization orbit readout
Latitude
-69.89451°
Longitude
69.30624°
Altitude
833.105 km
Speed
7.434 km/s
Apparent Right ascension
22h 47m 54s
Apparent Declination
-56° 40' 21"
Sunlit
Object is in daylight
Visualization observer readout
Local Sidereal Time
10:04:10
Azimuth
199.472° SSW
Elevation
-71.785°
Doppler factor
1
Orbital elements
Apogee altitude
804.889 km
Perigee altitude
796.606 km
Semi-major axis
7,178.884 km
Eccentricity
0.00058
Inclination
98.7637°
RAAN
207.8022°
Arg. of periapsis
40.1637°
True anomaly
Unknown
Mean anomaly
319.9968°
Eccentric anomaly
Unknown
Mean motion
3.56827 °/min
Orbital period
100.89 mins
BSTAR
0.00069389
Loading maneuver chart data...
Loading SW <> Apogee altitude chart data...

DMSP 5D-2 F13 DEB Visibility forecast

Observer location: undefined°, undefined°

Span
Click to sort rows by Start time (UTC) header in descending order
Start Az.
Max El. time (UTC)
Max El. Az.
Max El.
End time (UTC)
End Az.
8 mins2025-07-07 00:24:06.441Z118.614° SE2025-07-07 00:28:06.441Z61.349° ENE24.571°2025-07-07 00:32:06.441Z10.471° NNE
8 mins2025-07-07 02:04:06.441Z205.253° SW2025-07-07 02:07:06.441Z254.153° W30.278°2025-07-07 02:12:06.441Z328.178° NNW
8 mins2025-07-07 14:19:06.441Z14.885° NNE2025-07-07 14:23:06.441Z182.679° SSW44.216°2025-07-07 14:27:06.441Z193.742° SSW
|